Wetbulb
41.65 41.77 41.92 40.01 38.62 39.02 40.58 40.87 40.63 39.81 40.75 41.70 40.38 40.39 42.76 42.71 42.95 43.07 43.75 43.32 42.96 42.95 43.28 42.91 41.81 42.26 41.35 41.44 41.54 41.55 41.95 41.93 39.19 41.50 44.52 46.38 46.61 45.65 46.20 48.58 49.05 50.08 50.13
41.70 41.62 41.47 39.58 38.93 38.33 39.89 40.28 40.83 39.94 40.46 41.66 41.18 40.45 41.29 40.92 41.85 42.51 42.18 43.11 41.96 41.91 42.15 42.55 42.55 42.69 42.32 41.67 41.20 40.80 40.86 41.54 40.69 38.61 42.17 43.80 45.14 45.57 45.22 46.41 46.87 47.28 48.61
41.42 41.13 40.80 38.78 40.08 39.70 39.46 39.80 40.54 40.06 40.28 40.82 41.23 40.50 40.74 40.76 40.52 40.78 40.63 40.25 40.56 41.20 41.33 41.56 42.12 42.20 41.46 41.91 41.94 41.52 41.44 41.19 40.71 40.06 40.14 42.92 43.92 45.27 44.47 45.67 46.13 46.71 47.41
41.09 40.58 39.95 38.47 40.43 40.19 40.06 39.10 40.29 40.16 39.95 39.99 40.67 41.24 41.04 41.95 41.07 39.84 40.39 40.33 39.58 39.35 39.94 40.36 41.19 41.94 41.79 42.38 42.06 41.42 41.25 40.79 40.55 40.67 40.32 41.17 42.12 43.97 44.30 43.37 42.65 45.07 44.88
40.27 39.91 39.78 39.36 40.63 40.72 40.21 39.26 39.83 40.14 39.80 40.01 39.92 40.76 41.46 41.28 41.45 40.55 39.16 39.21 38.91 39.07 40.37 39.74 40.02 42.42 44.69 43.95 43.00 41.48 41.29 40.98 39.77 38.59 39.32 40.37 40.45 41.06 40.53 42.62 40.74 42.47 41.97
40.01 39.42 40.04 40.31 40.14 39.95 40.49 39.91 39.60 39.31 39.61 39.51 38.99 40.19 40.54 40.73 41.85 41.47 40.74 40.22 38.81 37.51 37.71 39.92 40.08 41.60 42.93 44.07 43.28 42.46 43.16 40.92 39.66 39.34 38.52 38.29 38.14 36.73 38.26 38.06 37.66 37.93 34.98
39.91 39.75 39.44 39.89 39.85 39.61 39.97 40.08 39.41 38.88 38.76 38.73 39.05 38.73 39.69 40.62 42.23 41.63 40.91 39.66 39.38 38.76 38.07 39.54 39.94 40.24 40.71 40.60 41.96 42.28 42.77 43.73 43.16 40.55 39.35 39.69 34.80 34.99 34.72 33.69 33.63 34.49 35.28
39.64 39.39 39.32 39.16 39.42 39.69 38.75 39.33 39.71 39.59 39.20 38.40 38.16 38.94 38.96 39.52 42.43 41.80 40.98 39.70 39.48 38.72 39.05 39.31 39.23 39.25 39.84 38.01 37.64 37.43 37.49 37.96 39.48 40.31 38.35 34.72 35.10 34.00 35.48 35.34 34.18 33.67 34.22
39.08 39.04 39.16 39.17 38.76 39.47 38.06 38.67 40.11 39.83 39.30 39.56 39.06 38.41 37.45 38.96 41.99 41.93 39.78 38.49 38.04 38.04 38.32 38.90 39.40 39.69 40.81 39.84 36.01 34.89 35.30 36.08 38.77 40.06 40.16 40.35 41.13 41.94 40.26 38.65 34.40 33.69 32.41
39.11 39.39 39.81 39.76 38.71 38.69 39.70 39.60 40.97 40.85 39.93 40.10 39.36 39.58 39.72 38.32 41.34 41.60 40.36 37.69 37.03 36.88 37.66 37.91 39.07 38.83 40.56 40.93 37.13 34.56 32.40 33.07 36.64 36.33 37.30 37.18 36.94 36.04 38.62 37.29 37.31 33.60 33.35
40.39 40.50 40.18 40.22 38.99 39.13 40.10 40.70 41.23 40.82 40.74 40.28 39.97 40.54 39.86 39.98 40.15 41.60 41.11 38.06 36.89 36.49 36.38 36.39 37.01 38.80 38.87 39.10 38.58 37.27 35.56 37.75 37.27 37.52 37.29 36.93 36.78 35.86 35.56 35.72 35.85 35.44 34.00
40.65 40.40 39.97 40.06 39.46 39.24 39.51 40.27 40.41 40.46 39.61 39.25 39.20 39.02 40.51 40.16 40.92 41.34 41.73 40.68 39.60 36.13 35.42 36.57 37.18 38.62 38.43 38.05 37.44 37.99 37.97 37.38 36.56 35.67 35.14 34.89 34.63 35.39 35.75 35.88 36.11 36.06 36.01
40.20 39.95 39.82 40.00 39.73 39.36 38.50 38.99 39.20 39.05 38.82 38.10 37.66 38.12 37.77 39.55 39.50 40.84 40.95 41.00 40.55 37.72 37.13 37.70 38.31 38.62 38.91 38.50 38.91 38.99 38.18 35.80 34.68 33.48 32.64 33.12 34.01 34.99 35.50 36.33 36.46 36.73 36.97
39.53 39.59 39.76 39.32 39.07 39.26 38.80 38.05 38.14 36.86 36.51 36.83 36.64 37.09 37.45 37.90 37.81 38.54 38.37 38.25 38.90 38.21 38.06 37.67 38.20 38.25 38.49 37.72 37.11 37.03 36.37 36.28 35.34 34.12 34.11 35.14 35.04 34.47 33.51 34.30 33.24 34.07 33.94
39.49 39.79 38.93 39.41 39.08 38.74 38.99 37.70 36.65 37.37 37.07 36.06 35.96 36.75 36.13 35.34 36.69 38.49 38.00 36.29 36.88 37.08 37.75 37.27 35.65 34.88 34.23 34.49 34.94 35.38 35.88 35.75 34.07 34.47 34.32 34.19 34.17 34.48 34.11 34.84 33.42 32.61 31.15
38.68 39.22 38.75 38.88 39.05 38.85 38.52 38.78 38.09 37.22 37.40 38.28 38.87 37.73 37.32 38.29 38.74 38.53 38.40 37.82 38.15 38.62 36.67 34.82 34.04 33.89 33.32 33.31 33.05 33.35 34.27 34.62 34.41 34.81 34.65 34.58 33.73 33.62 33.63 34.44 34.35 33.12 31.93
38.22 38.42 38.86 38.80 38.79 38.10 38.04 37.58 36.84 39.80 38.67 38.34 39.45 39.37 38.57 38.23 38.28 38.24 38.35 38.53 38.85 38.04 34.69 34.31 33.90 33.77 33.63 33.74 33.29 33.05 32.50 33.56 34.75 34.42 34.12 33.94 33.79 33.28 33.37 33.06 33.15 33.23 32.81
38.87 38.92 38.82 38.82 38.79 38.36 38.03 37.74 37.81 37.05 36.49 37.55 40.39 39.65 39.17 39.13 38.65 38.41 38.30 38.18 35.23 35.98 34.97 34.38 33.84 33.98 34.06 33.88 33.93 33.53 33.36 33.58 33.44 33.40 34.17 34.38 33.82 32.96 32.89 32.55 32.89 32.43 32.10
38.76 38.34 38.61 39.03 39.26 38.24 38.60 38.44 38.04 37.73 37.48 37.55 38.01 38.97 39.05 39.94 40.60 39.32 38.56 35.17 33.95 33.71 34.02 34.23 34.77 34.61 34.54 34.80 34.81 34.79 34.48 33.81 33.48 32.93 33.15 33.86 34.25 33.96 33.48 33.77 33.68 34.19 33.69
39.44 37.52 37.35 38.40 38.50 38.30 38.37 38.05 37.69 37.58 37.47 37.38 37.04 36.15 36.90 37.67 36.01 35.76 36.10 35.37 34.57 34.31 34.20 34.11 34.79 35.11 35.15 35.17 35.13 34.91 34.25 33.75 33.01 32.91 33.09 33.45 34.17 34.97 34.09 34.03 34.03 33.16 33.09
38.96 39.03 37.37 38.40 38.02 37.71 37.77 37.43 37.62 37.68 37.14 37.14 37.36 37.92 38.08 36.53 35.82 35.68 35.29 35.09 34.83 34.78 34.59 34.69 34.90 35.16 35.08 35.28 35.36 35.09 34.24 33.59 33.17 32.71 33.14 33.01 33.47 33.16 35.45 35.43 35.28 35.13 34.67
38.37 38.44 38.24 37.47 37.66 37.45 36.88 37.29 37.28 37.21 37.22 36.92 37.40 37.80 38.93 37.56 36.83 36.20 35.94 35.85 36.03 36.12 36.33 35.72 35.42 35.35 35.41 35.25 35.27 35.08 34.42 33.29 33.39 33.05 32.68 33.29 33.43 33.35 33.46 33.71 34.41 35.13 34.71
37.96 37.69 37.75 37.57 37.50 37.34 37.46 37.32 37.00 36.48 36.36 36.80 37.03 36.59 36.93 36.73 36.83 36.57 36.36 36.61 36.66 36.38 36.71 36.21 35.74 35.41 36.35 36.30 36.57 35.90 34.06 33.10 33.66 33.77 32.90 32.78 32.85 32.49 33.11 33.31 35.31 34.87 34.15
37.33 37.10 36.78 36.83 36.93 36.34 36.74 36.50 36.80 36.52 36.00 36.08 36.30 36.10 36.50 36.68 36.81 36.84 36.96 37.20 37.05 36.77 36.79 36.33 35.96 35.37 35.86 36.13 36.21 36.36 35.62 34.56 34.84 33.89 34.11 33.46 32.78 32.80 32.27 31.85 32.14 32.60 31.90
33.50 33.67 34.08 34.83 35.49 35.78 36.11 36.29 36.29 36.32 36.32 36.00 35.76 36.06 36.50 36.54 36.44 36.83 37.19 37.22 36.97 36.55 36.35 36.36 36.33 35.77 35.89 36.03 35.65 35.49 35.28 35.28 34.84 34.82 35.57 34.74 33.54 33.07 32.16 31.83 31.65 31.57 31.70
33.35 33.16 32.93 32.67 31.99 32.36 33.23 34.03 34.80 35.33 35.17 35.57 35.93 36.40 36.30 35.96 36.01 36.16 36.62 36.57 36.32 36.30 36.07 36.25 36.28 35.91 35.97 35.53 35.61 35.63 35.71 35.84 34.78 35.73 35.87 35.92 33.99 33.01 31.88 31.30 31.35 30.78 30.71
MSLP
1022.38 1021.87 1021.32 1021.46 1021.31 1020.61 1019.12 1018.46 1017.80 1017.29 1016.39 1015.53 1015.01 1013.78 1012.58 1012.41 1012.11 1011.80 1011.33 1010.88 1010.85 1010.86 1010.85 1010.90 1011.17 1011.24 1011.49 1011.61 1011.67 1011.61 1011.32 1011.15 1010.75 1010.15 1009.79 1009.68 1009.97 1010.01 1009.83 1009.44 1009.40 1009.70 1010.24
1022.45 1021.86 1021.55 1021.79 1021.03 1020.42 1019.32 1018.66 1017.92 1017.19 1016.65 1015.91 1015.18 1014.48 1013.75 1013.35 1012.96 1012.46 1012.09 1011.49 1011.17 1010.96 1010.80 1010.70 1010.58 1010.86 1011.04 1011.29 1011.33 1011.37 1011.40 1011.36 1011.28 1010.71 1010.19 1009.84 1010.11 1010.09 1010.15 1010.32 1009.31 1009.22 1009.70
1022.54 1021.92 1021.75 1021.79 1020.68 1020.16 1019.71 1019.10 1018.13 1017.39 1016.74 1016.31 1015.71 1015.11 1014.52 1014.03 1013.68 1013.34 1012.97 1012.66 1012.31 1011.97 1011.65 1011.26 1010.79 1010.53 1010.62 1010.76 1010.92 1011.01 1011.08 1011.09 1010.92 1010.74 1010.32 1010.11 1009.85 1009.95 1010.72 1010.16 1009.31 1009.34 1009.27
1022.67 1022.11 1021.87 1021.94 1020.76 1020.26 1019.85 1019.62 1018.45 1017.69 1016.99 1016.75 1016.15 1015.61 1015.10 1014.48 1013.96 1013.72 1013.36 1012.99 1012.70 1012.48 1012.23 1011.85 1011.26 1010.69 1010.28 1010.24 1010.32 1010.48 1010.64 1010.85 1010.82 1010.56 1010.33 1010.14 1009.98 1009.88 1009.92 1009.86 1009.81 1009.50 1009.69
1022.88 1022.30 1022.04 1021.85 1021.06 1020.49 1019.89 1019.60 1018.84 1018.06 1017.47 1017.08 1016.75 1016.18 1015.57 1014.89 1014.37 1014.14 1013.98 1013.78 1013.37 1012.78 1012.14 1011.81 1011.49 1010.98 1010.32 1009.98 1009.91 1010.16 1010.14 1010.24 1010.59 1010.68 1010.40 1010.11 1010.07 1010.11 1010.12 1010.20 1010.27 1010.20 1010.41
1023.08 1022.56 1022.26 1021.81 1021.30 1020.82 1020.00 1019.47 1019.08 1018.65 1017.97 1017.44 1017.16 1016.60 1016.19 1015.41 1014.86 1014.41 1014.08 1013.78 1013.81 1013.40 1012.79 1012.05 1011.48 1011.15 1010.52 1009.93 1009.87 1009.97 1009.87 1009.99 1010.00 1010.33 1010.33 1010.23 1010.21 1010.21 1010.31 1010.63 1011.08 1011.25 1011.43
1023.32 1022.82 1022.41 1022.04 1021.47 1021.10 1020.55 1019.73 1019.24 1018.88 1018.59 1017.92 1017.48 1017.20 1016.46 1015.98 1015.14 1014.71 1014.22 1014.05 1013.79 1013.62 1013.28 1012.50 1011.72 1011.46 1011.15 1010.77 1010.34 1010.43 1010.25 1010.03 1010.12 1010.31 1010.07 1009.82 1010.00 1010.04 1010.39 1010.80 1011.11 1011.40 1011.49
1023.60 1023.12 1022.65 1022.23 1021.75 1021.31 1021.13 1020.25 1019.46 1019.10 1018.62 1018.33 1018.20 1017.68 1016.98 1016.36 1015.47 1015.05 1014.50 1014.26 1013.88 1013.64 1013.31 1013.02 1012.68 1012.00 1011.65 1011.67 1011.41 1011.24 1011.08 1010.92 1010.69 1010.47 1010.33 1009.97 1009.58 1009.65 1009.93 1010.19 1010.67 1011.00 1011.09
1023.91 1023.42 1022.88 1022.46 1021.97 1021.52 1021.35 1020.60 1019.75 1019.24 1018.93 1018.42 1018.24 1018.09 1017.55 1016.90 1016.15 1015.48 1014.93 1014.46 1014.12 1013.86 1013.74 1013.35 1012.98 1012.57 1012.10 1012.01 1011.99 1011.85 1011.68 1011.40 1010.98 1010.69 1010.40 1010.23 1009.88 1009.64 1009.63 1010.00 1010.28 1010.61 1010.59
1024.18 1023.68 1023.10 1022.64 1022.22 1021.83 1021.38 1020.83 1020.10 1019.50 1019.12 1018.78 1018.34 1018.08 1017.80 1017.26 1016.62 1016.14 1015.65 1015.21 1014.60 1014.13 1013.88 1013.74 1013.48 1012.96 1012.40 1012.05 1012.35 1012.23 1012.00 1011.77 1011.33 1011.07 1010.74 1010.51 1010.46 1010.40 1010.09 1009.98 1009.91 1010.02 1010.18
1024.31 1023.78 1023.24 1022.69 1022.39 1022.08 1021.62 1021.07 1020.36 1019.83 1019.36 1018.87 1018.47 1018.09 1017.87 1017.57 1017.10 1016.43 1016.06 1015.69 1015.27 1014.64 1014.32 1014.06 1013.93 1013.53 1013.09 1012.60 1012.28 1012.06 1011.84 1011.58 1011.27 1010.95 1010.73 1010.60 1010.48 1010.48 1010.45 1010.34 1010.23 1010.08 1009.82
1024.32 1023.79 1023.29 1022.84 1022.51 1022.17 1021.80 1021.29 1020.74 1020.21 1019.66 1019.15 1018.62 1018.35 1017.86 1017.65 1017.31 1016.74 1016.21 1015.91 1015.64 1015.18 1014.86 1014.55 1014.23 1013.71 1013.25 1012.86 1012.56 1012.13 1011.60 1011.13 1010.91 1010.70 1010.53 1010.44 1010.30 1010.15 1010.26 1010.29 1010.19 1010.06 1009.84
1024.25 1023.75 1023.28 1022.85 1022.48 1022.20 1021.91 1021.51 1021.07 1020.77 1020.29 1019.67 1019.18 1018.55 1018.31 1017.71 1017.48 1017.06 1016.56 1016.08 1015.66 1015.32 1015.16 1014.74 1014.33 1013.79 1013.31 1012.94 1012.51 1012.08 1011.63 1011.31 1010.95 1010.63 1010.49 1010.28 1010.10 1009.84 1009.61 1009.55 1009.75 1009.58 1009.38
1024.17 1023.77 1023.37 1022.94 1022.63 1022.33 1022.17 1021.95 1021.57 1021.52 1021.16 1020.61 1019.99 1019.32 1018.84 1018.29 1017.98 1017.64 1017.04 1016.56 1016.09 1015.62 1015.20 1014.63 1014.18 1013.77 1013.40 1013.19 1012.86 1012.53 1012.25 1011.91 1011.57 1011.28 1010.82 1010.32 1009.83 1009.64 1009.48 1009.38 1009.32 1008.97 1008.73
1024.16 1023.69 1023.43 1023.11 1022.79 1022.47 1022.21 1022.44 1022.26 1022.13 1022.07 1021.53 1020.93 1020.31 1019.56 1019.12 1018.88 1018.45 1017.68 1017.23 1016.64 1016.14 1015.12 1014.51 1014.25 1013.93 1013.66 1013.33 1012.99 1012.72 1012.49 1012.19 1011.95 1011.64 1011.22 1010.80 1010.42 1010.07 1009.75 1009.41 1009.18 1008.94 1008.65
1024.31 1023.82 1023.61 1023.36 1023.12 1022.89 1022.54 1022.18 1022.29 1022.03 1021.88 1021.63 1021.19 1020.76 1020.27 1019.91 1019.35 1018.73 1017.96 1017.39 1016.72 1015.96 1015.26 1014.89 1014.58 1014.30 1013.98 1013.57 1013.20 1012.85 1012.69 1012.40 1012.25 1011.96 1011.52 1011.12 1010.72 1010.33 1009.98 1009.61 1009.36 1009.09 1008.79
1024.65 1024.37 1023.92 1023.52 1023.20 1022.92 1022.61 1022.37 1022.06 1021.70 1021.56 1021.29 1020.95 1020.53 1020.27 1019.75 1019.27 1018.72 1018.02 1017.32 1016.83 1016.22 1015.80 1015.40 1015.09 1014.81 1014.37 1013.97 1013.55 1013.20 1012.81 1012.49 1012.24 1011.90 1011.52 1011.18 1010.81 1010.40 1009.95 1009.59 1009.27 1008.98 1008.65
1024.82 1024.58 1023.99 1023.86 1023.46 1023.19 1022.85 1022.47 1022.19 1021.90 1021.47 1021.09 1020.80 1020.51 1020.22 1019.67 1019.17 1018.70 1018.17 1017.53 1017.06 1016.64 1016.43 1016.03 1015.57 1015.20 1014.79 1014.38 1013.90 1013.54 1013.13 1012.56 1012.16 1011.80 1011.46 1011.22 1010.98 1010.61 1010.09 1009.75 1009.40 1009.03 1008.63
1024.76 1024.38 1024.20 1023.90 1023.52 1023.52 1023.04 1022.61 1022.27 1021.81 1021.36 1020.98 1020.62 1020.38 1020.23 1019.68 1019.17 1018.76 1018.36 1017.96 1017.74 1017.40 1016.97 1016.58 1016.10 1015.59 1015.20 1014.72 1014.20 1013.79 1013.28 1012.71 1012.25 1011.92 1011.47 1011.12 1010.90 1010.60 1010.17 1009.81 1009.44 1008.95 1008.49
1024.83 1024.74 1024.75 1024.24 1023.63 1023.23 1022.87 1022.59 1022.16 1021.89 1021.61 1021.26 1020.94 1020.83 1020.61 1019.89 1019.29 1018.91 1018.63 1018.35 1018.06 1017.85 1017.48 1017.02 1016.55 1016.04 1015.53 1015.05 1014.48 1013.99 1013.42 1012.91 1012.53 1012.13 1011.65 1011.21 1010.85 1010.62 1010.24 1009.77 1009.26 1008.74 1008.36
1025.14 1024.75 1024.66 1023.95 1023.70 1023.49 1023.15 1022.77 1022.37 1022.04 1021.59 1021.31 1021.10 1021.05 1021.02 1020.37 1019.84 1019.42 1019.03 1018.69 1018.35 1017.99 1017.73 1017.36 1016.89 1016.37 1015.86 1015.25 1014.75 1014.19 1013.69 1013.16 1012.69 1012.38 1011.88 1011.43 1011.02 1010.60 1010.29 1009.85 1009.33 1008.84 1008.31
1025.29 1024.83 1024.50 1024.26 1023.92 1023.55 1023.37 1022.90 1022.42 1022.07 1021.78 1021.42 1021.10 1020.86 1020.70 1020.27 1020.02 1019.79 1019.49 1019.04 1018.64 1018.21 1017.77 1017.49 1017.12 1016.66 1016.08 1015.45 1014.88 1014.45 1013.98 1013.48 1012.92 1012.50 1012.15 1011.64 1011.12 1010.69 1010.23 1009.86 1009.45 1009.13 1008.65
1025.24 1024.82 1024.44 1024.13 1024.01 1023.79 1023.31 1022.98 1022.77 1022.54 1022.22 1021.85 1021.53 1021.07 1020.65 1020.37 1020.03 1019.77 1019.59 1019.30 1018.91 1018.50 1018.01 1017.59 1017.20 1016.74 1016.16 1015.64 1015.17 1014.66 1014.23 1013.81 1013.26 1012.75 1012.25 1011.77 1011.24 1010.88 1010.44 1010.07 1009.69 1009.27 1008.78
1025.54 1025.10 1024.78 1024.54 1024.32 1023.95 1023.58 1023.25 1022.79 1022.49 1022.34 1021.83 1021.44 1021.17 1020.89 1020.53 1020.18 1019.98 1019.80 1019.54 1019.17 1018.69 1018.30 1017.97 1017.49 1016.95 1016.27 1015.72 1015.40 1015.00 1014.50 1014.03 1013.32 1012.81 1012.33 1011.88 1011.34 1010.90 1010.51 1010.19 1009.80 1009.31 1008.82
1026.11 1025.90 1025.62 1025.12 1024.73 1024.33 1023.91 1023.43 1023.09 1022.80 1022.48 1022.30 1021.95 1021.39 1021.06 1020.88 1020.50 1020.25 1019.88 1019.45 1019.15 1018.88 1018.42 1017.98 1017.63 1017.19 1016.56 1015.92 1015.53 1015.12 1014.73 1014.06 1013.39 1012.82 1012.15 1011.80 1011.38 1010.98 1010.58 1010.20 1009.83 1009.33 1008.88
1026.05 1025.87 1025.75 1025.74 1025.60 1025.27 1024.75 1024.19 1023.81 1023.34 1022.86 1022.51 1022.13 1021.78 1021.64 1021.29 1020.92 1020.68 1020.22 1020.00 1019.72 1019.19 1018.68 1018.30 1017.66 1017.04 1016.63 1016.31 1015.81 1015.18 1014.62 1014.11 1013.48 1012.83 1012.18 1011.71 1011.44 1011.10 1010.73 1010.40 1010.01 1009.56 1009.12
Wind_Speed
14 15 15 14 12 15 14 14 14 13 15 14 16 17 15 8 6 7 8 7 4 2 3 2 4 4 4 4 4 5 6 6 7 6 6 5 7 5 7 6 7 7 8
14 14 15 14 13 13 15 16 15 13 13 15 15 17 14 14 14 13 13 8 8 8 7 6 5 3 6 5 4 7 5 7 6 11 9 5 5 2 5 15 6 7 7
14 14 14 14 13 14 15 17 16 16 12 13 15 16 14 13 13 12 12 12 12 11 9 9 9 3 6 5 5 6 5 6 7 8 8 7 6 3 8 14 7 8 5
14 14 13 14 14 14 13 15 16 15 15 14 14 14 14 12 12 13 11 11 10 8 9 9 10 9 8 4 6 8 6 6 6 7 7 7 7 6 5 4 6 4 5
13 13 13 13 13 14 13 12 15 15 14 14 13 14 14 12 10 13 12 13 13 12 10 10 9 11 14 8 5 3 6 7 5 5 7 6 6 5 3 2 4 2 3
13 13 12 13 12 13 13 13 13 14 15 14 13 13 14 10 21 18 12 9 10 13 12 12 9 12 11 10 2 3 7 6 5 5 5 8 4 1 2 2 1 1 2
12 13 13 13 13 12 14 13 12 12 13 15 14 13 13 14 23 20 14 7 8 8 13 11 9 9 11 10 6 9 10 12 9 4 7 9 4 6 5 3 3 3 3
12 12 12 12 12 12 13 14 12 11 11 11 13 13 13 12 24 21 17 9 8 11 10 11 10 11 10 8 7 7 7 7 7 4 5 4 1 4 5 5 6 4 1
12 13 13 12 11 12 11 12 12 11 10 10 9 12 12 13 24 24 16 10 9 9 10 11 9 6 14 13 8 7 6 7 8 10 9 9 10 11 1 3 4 4 4
13 12 12 11 11 11 10 11 10 10 10 9 10 10 14 12 19 22 18 8 9 8 8 9 17 15 18 13 5 4 5 4 4 5 5 6 7 7 9 4 1 5 3
11 11 11 11 10 10 10 9 10 10 10 9 9 8 9 12 14 19 19 10 8 7 7 7 7 16 15 16 12 5 3 3 5 3 2 3 3 3 3 3 3 3 4
10 10 10 10 8 8 9 9 10 10 10 10 10 9 7 8 16 18 19 16 14 8 8 7 8 14 13 11 9 11 10 6 2 3 2 2 3 2 1 1 1 2 2
9 9 10 9 9 9 9 9 8 10 9 9 8 8 8 8 9 20 20 19 16 8 7 9 12 13 14 11 13 14 11 5 5 4 3 2 2 3 4 2 6 5 4
8 8 8 8 9 8 7 7 7 8 8 9 9 9 8 8 9 10 9 10 15 10 12 7 10 11 11 9 8 8 6 6 7 7 7 7 3 3 3 1 3 4 4
7 6 7 6 8 7 6 3 6 6 7 8 8 9 9 9 11 16 13 9 9 10 10 5 5 6 7 7 6 5 5 5 5 6 6 6 6 5 5 5 3 4 4
7 6 5 6 6 6 6 4 5 2 2 7 11 9 9 13 18 18 17 14 15 15 6 6 7 7 7 7 7 6 6 8 5 6 6 5 6 5 4 4 4 4 4
7 6 6 6 5 5 6 6 6 3 7 1 10 12 14 15 17 19 19 15 15 12 7 7 7 7 7 7 7 7 7 6 6 6 5 5 5 5 7 5 4 4 4
6 5 5 5 5 5 5 5 5 6 7 6 7 10 15 16 14 15 17 12 8 10 8 8 8 7 7 7 7 7 7 6 6 5 5 5 5 6 5 5 5 5 5
5 4 5 4 4 5 5 5 5 5 5 5 6 8 13 16 12 14 15 7 8 8 8 8 8 8 7 7 7 7 7 7 7 6 5 4 4 5 5 4 5 9 8
5 3 6 5 5 4 4 4 5 5 5 6 6 6 8 10 8 8 8 8 7 7 7 8 8 8 8 7 8 7 6 7 6 6 6 6 5 4 5 6 6 5 5
5 5 5 5 4 4 4 5 5 5 5 5 5 6 14 8 7 7 7 7 8 8 7 7 8 8 8 7 7 7 7 6 6 6 6 6 6 5 4 5 6 6 6
5 5 4 5 5 4 4 5 5 4 4 5 5 6 9 5 5 6 7 7 7 7 7 7 6 7 8 7 8 7 8 8 7 6 6 6 5 5 5 5 4 5 5
5 5 5 4 4 6 5 4 4 5 6 6 5 5 5 5 5 5 6 6 7 7 7 7 7 7 7 8 8 7 7 7 8 6 6 6 5 4 5 4 4 5 6
5 6 5 5 4 5 5 6 5 5 5 6 5 5 6 6 6 6 6 6 6 7 6 7 7 10 9 8 8 8 7 8 7 6 7 6 5 6 5 4 5 7 6
3 5 6 6 6 6 6 6 6 6 6 6 6 6 6 6 6 6 6 5 6 7 7 7 6 10 11 12 12 13 14 15 9 10 5 5 6 7 6 5 6 6 7
2 3 3 4 4 6 7 7 7 7 7 6 6 6 7 7 7 8 7 8 8 7 8 6 8 11 11 10 13 14 15 16 12 15 7 4 5 5 5 6 8 5 7
Wind_Direction
348 346 354 9 349 334 337 353 357 346 342 4 354 355 6 45 31 353 333 8 359 287 270 200 228 247 223 223 244 278 286 282 283 276 252 249 257 300 321 234 233 172 181
346 348 4 355 353 346 352 353 358 359 355 3 10 7 22 27 19 12 357 357 355 8 4 338 299 212 230 224 224 236 237 252 256 260 272 250 224 223 304 265 229 222 194
346 352 9 344 349 1 2 353 358 0 7 14 8 16 3 33 28 21 19 18 8 0 347 339 322 280 239 225 235 241 231 253 253 254 263 273 264 185 238 262 211 235 218
347 355 8 347 352 4 9 358 345 6 10 20 14 13 11 19 31 28 21 18 19 17 0 342 318 336 305 281 223 223 225 236 257 270 251 257 259 255 263 259 270 269 240
349 355 3 350 359 358 9 10 347 7 14 28 11 12 11 19 21 29 24 21 13 2 359 15 349 315 332 308 312 287 244 218 225 249 267 262 246 241 233 286 253 307 352
351 354 357 353 3 358 358 7 11 11 4 21 21 10 22 9 15 13 23 12 18 14 359 342 24 5 333 354 122 294 256 264 224 231 244 252 279 147 91 105 48 10 293
352 355 356 354 0 7 351 7 10 18 11 8 22 11 5 3 26 15 13 28 22 25 6 357 2 22 11 360 27 37 39 50 29 356 282 256 197 183 147 157 167 179 229
355 354 354 357 358 11 1 352 5 11 6 23 12 21 2 7 14 20 10 20 14 17 24 14 7 11 38 36 24 25 18 13 1 17 15 318 147 174 180 180 203 209 181
354 353 351 356 357 1 16 342 358 4 6 8 23 16 3 10 13 15 11 8 12 26 18 18 23 15 44 45 39 35 22 12 1 1 1 11 3 8 240 201 192 193 216
349 347 349 349 358 0 8 344 1 0 12 6 10 17 11 2 12 15 13 9 0 9 27 19 13 16 18 43 55 34 12 335 347 351 355 14 26 13 16 22 233 220 222
341 343 349 353 357 2 354 353 356 4 359 10 8 10 18 4 356 12 13 9 350 1 7 6 18 7 8 12 20 12 353 326 327 337 4 3 16 28 13 5 336 293 252
340 346 350 357 2 2 359 353 360 356 1 5 2 7 1 7 5 360 6 9 4 359 2 4 356 359 1 10 10 357 345 330 313 322 328 342 333 333 187 270 299 294 280
342 348 350 1 359 7 7 359 5 4 357 358 360 0 354 358 7 359 356 359 359 358 354 346 353 356 2 360 359 359 -0 356 341 339 322 325 306 290 315 243 203 218 232
342 348 350 355 355 5 16 7 11 10 2 358 355 350 357 356 3 351 349 349 353 357 342 342 353 357 6 4 2 0 359 353 352 347 342 343 317 310 312 308 295 311 272
336 345 3 351 355 358 9 27 17 33 5 353 356 344 349 355 355 350 349 350 348 340 317 338 5 356 356 356 351 353 353 352 347 335 332 333 332 330 331 336 307 297 281
337 346 1 344 354 354 351 357 159 161 360 6 3 7 348 358 356 358 356 350 356 352 355 360 3 356 356 349 344 345 349 350 347 331 332 331 331 324 315 315 303 301 302
329 346 333 346 349 351 350 349 346 341 221 351 0 4 4 358 359 360 355 353 11 8 9 3 359 355 348 347 347 343 339 336 338 330 328 332 334 328 329 318 310 300 285
324 307 315 339 338 339 342 345 346 346 344 345 354 1 4 354 359 4 2 356 4 11 5 359 354 353 350 347 343 341 334 333 335 330 343 344 347 330 336 336 326 321 318
317 323 320 318 323 317 326 333 338 338 341 343 348 359 2 343 358 7 9 11 6 359 355 353 351 350 352 343 341 338 334 338 341 335 331 337 343 335 329 331 323 331 329
312 292 308 310 315 324 326 333 338 340 343 346 353 4 350 338 359 359 3 1 0 359 353 347 346 346 347 343 341 337 334 340 341 336 336 337 346 339 325 326 325 318 318
312 310 313 288 315 324 318 330 333 334 339 341 345 1 348 331 352 355 355 355 353 351 352 348 342 341 341 339 340 341 339 336 339 336 333 332 334 335 342 332 326 336 340
305 307 312 313 307 316 327 314 321 327 331 332 338 342 342 347 351 352 350 345 348 345 348 346 343 341 340 338 338 341 337 336 334 336 332 330 331 334 330 336 343 6 351
307 308 305 309 317 313 304 323 324 333 333 334 339 337 342 341 341 349 339 344 341 341 344 343 344 343 341 347 343 340 340 336 325 325 325 326 326 331 325 329 335 336 336
333 322 322 330 335 318 338 329 328 327 327 325 329 330 334 336 338 345 341 342 340 340 344 341 340 342 344 353 349 345 343 336 320 329 316 320 322 324 318 317 311 313 319
339 343 341 344 342 337 332 331 332 340 334 340 336 324 331 334 331 335 340 338 338 337 338 341 341 340 345 352 360 353 342 339 339 328 320 323 322 335 326 324 330 321 327
337 340 340 340 340 338 336 334 339 336 334 335 331 333 340 332 334 337 334 338 339 340 339 331 334 346 349 350 347 342 352 348 342 333 317 337 344 342 336 331 339 339 338